星链-34688(STARLINK-34688)

导读

STARLINK-34688是美国SpaceX星链星座的卫星,发射于2025年10月3日,用以提供全球覆盖的高速卫星互联网服务。星链卫星运行在近地轨道,通过大量卫星组网实现信号覆盖,为偏远地区、航空航海用户等提供网络连接,该卫星也延续了星链星座标准设计与配置。

基本信息
目录编号:
65875
目录名称:
STARLINK-34688
国际标识:
2025-223X
轨道中心:
EARTH
卫星名称:
星链-34688
卫星全名:
星链-34688(STARLINK-34688)
卫星状态:
在轨 (已飞行336 天)
发射日期:
2025-10-03 UTC
国别 :
美国 (US)
星等 :
--
轨道信息
数据来源 国际轨道数据
星历时间: 2026-09-03T21:24:06+0800
14小时前
查看轨道信息
半长轴: 6840.844km
偏心率: 0.0003058
轨道倾角: 53.158°
近地点辐角 87.851°
升交点赤经 184.765°
平近点角 272.284°
近地点: 460.615km
远地点: 464.799km
周期: 93.848分钟
每日圈数: 15.343988
详细信息
固有亮度:
5
最大亮度:
2.5
卫星平台:
Starlink V1.0
覆盖范围:
全球
运营商:
太空探索技术公司
运营商所在国:
美国
制造商(研发单位):
太空探索技术公司
制造商所在国:
美国
使用方式:
暂无
卫星简介
Starlink 计划是 SpaceX 推出的全球卫星互联网项目,通过发射低轨道卫星,为全球尤其是偏远地区提供高速、低延迟的互联网服务。自 2019 年起,Starlink 已部署数千颗卫星,旨在缩小全球数字鸿沟,推动互联网普及。该项目还为军事、航空等行业提供通信支持,带来广泛经济效益。
2D轨道图
3D轨道图
轨道高度分析图
轨道倾角分析图
轨道综合分析图
查看轨道综合分析图
交会数据列表
事件ID 空间交会对象 最接近时刻(TCA) 交会距离 交会风险概率(CRP) 交会风险指数(CRI) 操作
CDM_260904-221306-449706-587521
2026-09-04T
22:13:43+0000
0.402 km
远距离
2.890318E-4 高风险 0.84
CDM_260904-082205-696006-587522
2026-09-04T
08:22:39+0000
1.383 km
极远距离
8.619392E-6 低风险 0.54
CDM_260904-234706-449706-587521
2026-09-04T
23:47:31+0000
1.580 km
极远距离
4.990465E-6 低风险 0.49
CDM_260904-203906-449706-587521
2026-09-04T
20:39:56+0000
2.356 km
极远距离
1.752361E-6 低风险 0.4
CDM_260905-063205-178406-587521
2026-09-05T
06:32:11+0000
2.260 km
极远距离
1.392437E-6 低风险 0.38
CDM_260904-021803-830206-587521
2026-09-04T
02:18:19+0000
2.788 km
极远距离
1.314406E-6 低风险 0.37
CDM_260904-060805-468906-587521
OBJECT H (54689)
2026-09-04T
06:08:54+0000
2.954 km
极远距离
1.274784E-6 低风险 0.37
CDM_260904-000405-419606-587522
2026-09-04T
00:04:21+0000
2.743 km
极远距离
1.062402E-6 低风险 0.36